IRIDIUM 139

Last updated on Tue Sep 22 2026 00:03:21 GMT+0000 (Coordinated Universal Time)

1 42963U 17061J 26264.19160573 .00000028 00000+0 30810-5 0 9997 2 42963 86.4025 345.2077 0002181 94.1188 266.0258 14.34217755468604
UTC large
Height (km)
Speed (km/s)
/
Latitude / Longitude
Inclination (degrees)
Orbital Period (minutes)
Azimuth
Elevation
Range (km)
Doppler Factor

Next 0 passes for location: London (51.5072 / 0.1276)

No passes found over London.
IRIDIUM 139